Skip Page Navigation
NASA JPL Caltech
NASA Logo - Jet Propulsion Laboratory + View the NASA Portal
+ Center for Near-Earth Object Studies
JPL Home Earth Solar System Stars & Galaxies Technology
JPL Solar System Dynamics
BODIES ORBITS EPHEMERIDES TOOLS PHYSICAL DATA DISCOVERY FAQ SITE MAP
IMPORTANT: The SSD Announcement email list is now available. Major changes are coming in the near future, including possible hostname and/or URL changes. To be notified of such changes, subscribe to this email list.

Please visit this page for more details.


JPL Small-Body Database Browser
Search: [ help ]  
214240 (2005 ES183)
Classification: Main-belt Asteroid          SPK-ID: 2214240
Ephemeris | Orbit Diagram | Orbital Elements | Mission Design | Physical Parameters | Discovery Circumstances ]

[ show orbit diagram ]
Orbital Elements at Epoch 2458600.5 (2019-Apr-27.0) TDB
Reference: JPL 13 (heliocentric ecliptic J2000)
 Element Value Uncertainty (1-sigma)   Units 
e .08493157972950638 4.2281e-08  
a 2.384609903203806 1.7566e-08 au
q 2.182081217086081 1.0337e-07 au
i 6.247980397722296 7.3912e-06 deg
node 182.7851046281653 4.4926e-05 deg
peri 83.0561647138915 6.3065e-05 deg
M 225.0074525292154 4.4863e-05 deg
tp 2459104.849661899457
(2020-Sep-12.34966190)
0.0001681 TDB
period 1345.006681373276
3.68
1.4862e-05
4.069e-08
d
yr
n .2676566629635129 2.9575e-09 deg/d
Q 2.58713858932153 1.9058e-08 au
  Orbit Determination Parameters
   # obs. used (total)      247  
   data-arc span      8526 days (23.34 yr)  
   first obs. used      1995-09-24  
   last obs. used      2019-01-27  
   planetary ephem.      DE431  
   SB-pert. ephem.      SB431-N16  
   condition code      0  
   norm. resid. RMS      .56424  
   source      ORB  
   producer      Otto Matic  
   solution date      2019-Jul-14 03:04:25  

Additional Information
 Earth MOID = 1.17689 au 
 Jupiter MOID = 2.46643 au 
 T_jup = 3.523 
[ hide covariance matrix ]
Orbital Elements at Epoch 2456479.5 (2013-Jul-06.0) TDB
Reference: JPL 13 (heliocentric ecliptic J2000)
 Element Value Uncertainty (1-sigma)   Units 
e .08589161560373944 4.2316e-08  
q 2.179875996771347 1.0356e-07 au
tp 2456414.218086689875
(2013-May-01.71808669)
0.00016542 TDB
node 182.8251199455661 4.4971e-05 deg
peri 82.91754691543608 6.2709e-05 deg
i 6.244280884232209 7.3893e-06 deg
  Orbit Determination Parameters
   # obs. used (total)      247  
   data-arc span      8526 days (23.34 yr)  
   first obs. used      1995-09-24  
   last obs. used      2019-01-27  
   planetary ephem.      DE431  
   SB-pert. ephem.      SB431-N16  
   condition code      0  
   norm. resid. RMS      .56424  
   source      ORB  
   producer      Otto Matic  
   solution date      2019-Jul-14 03:04:25  

Additional Information
 Jupiter MOID = 2.46643 au 
 T_jup = 3.523 
Orbit Covariance (6×6)
  e q tp node peri i
e 1.790646931278533E-15 -4.329859522279884E-15 2.383414898610131E-14 -4.964537152101565E-15 1.754560629760108E-14 -5.30021372977129E-16
q -4.329859522279884E-15 1.072405741940505E-14 -2.466724975448981E-13 9.792694095990876E-15 -8.846189343729206E-14 1.493194187463448E-15
tp 2.383414898610131E-14 -2.466724975448981E-13 2.73642398830137E-8 4.148379506841495E-11 7.245772769249162E-9 -1.372946867787143E-11
node -4.964537152101565E-15 9.792694095990876E-15 4.148379506841495E-11 2.022364197941129E-9 -1.998622815384286E-9 -5.489757162207216E-11
peri 1.754560629760108E-14 -8.846189343729206E-14 7.245772769249162E-9 -1.998622815384286E-9 3.932414569253559E-9 5.097499974101313E-11
i -5.30021372977129E-16 1.493194187463448E-15 -1.372946867787143E-11 -5.489757162207216E-11 5.097499974101313E-11 5.460113720229223E-11

Ephemeris | Orbit Diagram | Orbital Elements | Mission Design | Physical Parameters | Discovery Circumstances ]

Physical Parameter Table
Parameter Symbol Value Units Sigma Reference Notes
absolute magnitude H 16.8   n/a MPO418148  

214240 (2005 ES183)          Discovered 2005-Mar-09 by Mt. Lemmon Survey at Mount Lemmon
Reference: 20090509/Numbers.arcLast Updated: 2009-05-11
Ephemeris | Orbit Diagram | Orbital Elements | Mission Design | Physical Parameters | Discovery Circumstances ]
ABOUT SSD CREDITS/AWARDS PRIVACY/COPYRIGHT GLOSSARY LINKS
FirstGov 2020-Jan-25 15:20 UT
(server date/time)  
NASA Home Page
Site Manager:   Ryan S. Park
Webmaster  Alan B. Chamberlin